Terminal Aerodrome Forecast
Issued by NWS

Home | Current Version | Previous Version | Text Only | Print | Product List | Glossary On
Versions: 1 2 3 4 5 6 7 8 9 10 11 12 13 14 15 16 17 18 19 20 21 22 23 24 25 26 27 28 29
000
FTUS41 KOKX 051400 AAA
TAFGON
TAF AMD
KGON 051434Z 0515/0612 35010G17KT 1/2SM SN FZFG OVC008
     FM051800 35012G18KT 2SM -SN BR BKN008 OVC015
     FM052000 33012KT 4SM -SN BR BKN020 OVC050
     FM052200 35010KT P6SM SCT020 BKN050
     FM061000 36006KT P6SM FEW050=

USA.gov is the U.S. government's official web portal to all federal, state and local government web resources and services.